Change the Weather History Date:

Sunday, January 25, 2015

  Actual Average Record
Temperature  
Mean Temperature 30 °F -  
Max Temperature 33 °F 18 °F 39 °F (2002)
Min Temperature 26 °F 2 °F -18 °F (1997)
Degree Days  
Heating Degree Days 36    
Moisture  
Dew Point 27 °F    
Average Humidity 90    
Maximum Humidity 93    
Minimum Humidity 80    
Precipitation  
Precipitation 0.01 in - - ()
Sea Level Pressure  
Sea Level Pressure 29.95 in    
Wind  
Wind Speed 9 mph (NNW)    
Max Wind Speed 14 mph    
Max Gust Speed -    
Visibility 9 miles    
Events Snow    
Averages and records for this station are not official NWS values.
T = Trace of Precipitation, MM = Missing Value Source: NWS Daily Summary

Daily Weather History Graph

Daily Weather History Graph

Search for Another Location

Airport or City:

Trip Planner

Search our weather history database for the weather conditions in past years. The results will help you decide how hot, cold, wet, or windy it might be!

Date:

Astronomy

Jan. 25, 2015 Rise Set
Actual Time 7:51 AM CST 5:21 PM CST
Civil Twilight 7:19 AM CST 5:53 PM CST
Nautical Twilight 6:44 AM CST 6:29 PM CST
Astronomical Twilight 6:09 AM CST 7:03 PM CST
Moon 10:41 AM CST (1/25) No Moon Set
Length of Visible Light 10h 33m
Length of Day
9h 29m
Waxing Crescent, 34% of the Moon is Illuminated
Jan 25
Waxing Crescent
Jan 26
First Quarter
Feb 3
Full
Feb 11
Last Quarter
Feb 18
New

Hourly Weather History & Observations

Time (CST) Temp. Windchill Dew Point Humidity Pressure Visibility Wind Dir Wind Speed Gust Speed Precip Events Conditions
12:14 AM 33.8 °F 25.3 °F 32.0 °F 93% 29.73 in 3.0 mi North 11.5 mph - N/A Snow Light Snow
12:34 AM 33.8 °F 25.3 °F 32.0 °F 93% 29.73 in 4.0 mi NNE 11.5 mph - N/A Snow Light Snow
12:55 AM 33.8 °F 25.8 °F 32.0 °F 93% 29.74 in 4.0 mi NNE 10.4 mph - 0.01 in Snow Light Snow
1:14 AM 33.8 °F 26.4 °F 32.0 °F 93% 29.76 in 4.0 mi North 9.2 mph - N/A Snow Light Snow
1:34 AM 33.8 °F 26.4 °F 32.0 °F 93% 29.77 in 4.0 mi North 9.2 mph - N/A Snow Light Snow
1:54 AM 33.8 °F 26.4 °F 32.0 °F 93% 29.78 in 7.0 mi North 9.2 mph - N/A   Overcast
2:14 AM 33.8 °F 27.0 °F 32.0 °F 93% 29.79 in 7.0 mi North 8.1 mph - N/A   Mostly Cloudy
2:34 AM 33.8 °F 26.4 °F 32.0 °F 93% 29.81 in 7.0 mi North 9.2 mph - N/A   Mostly Cloudy
2:54 AM 33.8 °F 25.3 °F 32.0 °F 93% 29.82 in 10.0 mi North 11.5 mph - N/A   Overcast
3:15 AM 33.8 °F 24.8 °F 32.0 °F 93% 29.83 in 10.0 mi North 12.7 mph - N/A   Overcast
3:34 AM 33.8 °F 24.8 °F 32.0 °F 93% 29.84 in 10.0 mi North 12.7 mph - N/A   Overcast
3:55 AM 33.8 °F 25.3 °F 30.2 °F 87% 29.84 in 10.0 mi North 11.5 mph - N/A   Overcast
4:14 AM 33.8 °F 24.8 °F 30.2 °F 87% 29.85 in 10.0 mi North 12.7 mph - N/A   Overcast
4:34 AM 33.8 °F 24.8 °F 30.2 °F 87% 29.85 in 10.0 mi North 12.7 mph - N/A   Overcast
4:54 AM 33.8 °F 25.3 °F 30.2 °F 87% 29.87 in 10.0 mi North 11.5 mph - N/A   Overcast
5:15 AM 33.8 °F 25.8 °F 30.2 °F 87% 29.88 in 10.0 mi North 10.4 mph - N/A   Overcast
5:35 AM 33.8 °F 25.3 °F 30.2 °F 87% 29.89 in 10.0 mi North 11.5 mph - N/A   Overcast
5:54 AM 33.8 °F 25.3 °F 30.2 °F 87% 29.90 in 10.0 mi North 11.5 mph - N/A   Overcast
6:15 AM 32.0 °F 24.8 °F 30.2 °F 93% 29.92 in 10.0 mi North 8.1 mph - N/A   Overcast
6:35 AM 32.0 °F 23.6 °F 30.2 °F 93% 29.92 in 10.0 mi North 10.4 mph - N/A   Overcast
6:54 AM 30.2 °F 20.8 °F 28.4 °F 93% 29.93 in 10.0 mi North 11.5 mph - N/A   Overcast
7:14 AM 30.2 °F 21.3 °F 28.4 °F 93% 29.94 in 10.0 mi NNW 10.4 mph - N/A   Overcast
7:35 AM 30.2 °F 22.6 °F 28.4 °F 93% 29.94 in 10.0 mi North 8.1 mph - N/A   Overcast
7:54 AM 30.2 °F 22.6 °F 28.4 °F 93% 29.95 in 10.0 mi NNW 8.1 mph - N/A   Overcast
8:15 AM 30.2 °F 21.3 °F 28.4 °F 93% 29.96 in 10.0 mi NNW 10.4 mph - N/A   Overcast
8:34 AM 30.2 °F 19.8 °F 26.6 °F 86% 29.97 in 10.0 mi NNW 13.8 mph - N/A   Overcast
8:54 AM 28.4 °F 18.5 °F 26.6 °F 93% 29.98 in 10.0 mi North 11.5 mph - N/A   Overcast
9:14 AM 28.4 °F 19.1 °F 26.6 °F 93% 29.98 in 10.0 mi NNW 10.4 mph - N/A   Overcast
9:34 AM 28.4 °F 20.4 °F 26.6 °F 93% 29.99 in 10.0 mi North 8.1 mph - N/A   Overcast
9:54 AM 28.4 °F 19.1 °F 24.8 °F 86% 30.01 in 10.0 mi NNW 10.4 mph - N/A   Overcast
10:15 AM 26.6 °F 16.8 °F 24.8 °F 93% 30.03 in 10.0 mi North 10.4 mph - N/A   Overcast
10:34 AM 26.6 °F 16.8 °F 24.8 °F 93% 30.03 in 10.0 mi North 10.4 mph - N/A   Overcast
10:54 AM 26.6 °F 17.5 °F 24.8 °F 93% 30.03 in 10.0 mi North 9.2 mph - N/A   Overcast
11:15 AM 26.6 °F 18.2 °F 24.8 °F 93% 30.04 in 10.0 mi NNW 8.1 mph - N/A   Overcast
11:35 AM 28.4 °F 21.2 °F 24.8 °F 86% 30.04 in 10.0 mi NNW 6.9 mph - N/A   Overcast
11:54 AM 28.4 °F 21.2 °F 24.8 °F 86% 30.04 in 10.0 mi NNW 6.9 mph - N/A   Overcast
12:14 PM 28.4 °F 23.3 °F 23.0 °F 80% 30.04 in 10.0 mi NNW 4.6 mph - N/A   Overcast
12:34 PM 28.4 °F 24.6 °F 24.8 °F 86% 30.03 in 10.0 mi NW 3.5 mph - N/A   Overcast
12:54 PM 28.4 °F 23.3 °F 24.8 °F 86% 30.04 in 10.0 mi NW 4.6 mph - N/A   Overcast
1:14 PM 28.4 °F 24.6 °F 24.8 °F 86% 30.03 in 10.0 mi WNW 3.5 mph - N/A   Overcast
1:34 PM 28.4 °F 23.3 °F 24.8 °F 86% 30.03 in 10.0 mi NNW 4.6 mph - N/A   Overcast
1:54 PM 30.2 °F 25.4 °F 24.8 °F 80% 30.03 in 10.0 mi WNW 4.6 mph - N/A   Overcast
2:14 PM 30.2 °F 26.7 °F 24.8 °F 80% 30.03 in 10.0 mi WNW 3.5 mph - N/A   Overcast
2:34 PM 28.4 °F 21.2 °F 24.8 °F 86% 30.04 in 10.0 mi WNW 6.9 mph - N/A   Overcast
2:55 PM 28.4 °F 24.6 °F 24.8 °F 86% 30.03 in 10.0 mi WNW 3.5 mph - N/A   Overcast
3:14 PM 28.4 °F 24.6 °F 24.8 °F 86% 30.03 in 10.0 mi WNW 3.5 mph - N/A   Overcast
3:35 PM 28.4 °F 23.3 °F 24.8 °F 86% 30.04 in 10.0 mi WNW 4.6 mph - N/A   Overcast
3:55 PM 28.4 °F 22.2 °F 24.8 °F 86% 30.04 in 10.0 mi NW 5.8 mph - N/A   Overcast
4:14 PM 28.4 °F 24.6 °F 24.8 °F 86% 30.04 in 10.0 mi West 3.5 mph - N/A   Overcast
4:34 PM 28.4 °F - 24.8 °F 86% 30.02 in 10.0 mi Calm Calm - N/A   Overcast
4:54 PM 28.4 °F 24.6 °F 24.8 °F 86% 30.02 in 10.0 mi WSW 3.5 mph - N/A   Overcast
5:15 PM 28.4 °F 23.3 °F 24.8 °F 86% 30.02 in 10.0 mi West 4.6 mph - N/A   Overcast
5:34 PM 28.4 °F 24.6 °F 24.8 °F 86% 30.02 in 10.0 mi WSW 3.5 mph - N/A   Overcast
5:54 PM 26.6 °F - 24.8 °F 93% 30.02 in 10.0 mi Calm Calm - N/A   Overcast
6:14 PM 26.6 °F - 24.8 °F 93% 30.03 in 10.0 mi Calm Calm - N/A   Scattered Clouds
6:34 PM 26.6 °F - 24.8 °F 93% 30.03 in 10.0 mi Calm Calm - N/A   Clear
6:55 PM 26.6 °F - 24.8 °F 93% 30.03 in 10.0 mi Calm Calm - N/A   Clear
7:14 PM 26.6 °F - 24.8 °F 93% 30.02 in 10.0 mi Calm Calm - N/A   Clear
7:35 PM 26.6 °F - 24.8 °F 93% 30.03 in 10.0 mi Calm Calm - N/A   Scattered Clouds
7:54 PM 26.6 °F - 24.8 °F 93% 30.01 in 10.0 mi Calm Calm - N/A   Overcast
8:14 PM 26.6 °F 22.6 °F 24.8 °F 93% 30.00 in 10.0 mi South 3.5 mph - N/A   Overcast
8:34 PM 28.4 °F 22.2 °F 24.8 °F 86% 29.99 in 10.0 mi South 5.8 mph - N/A   Overcast
8:54 PM 28.4 °F 22.2 °F 24.8 °F 86% 29.97 in 10.0 mi South 5.8 mph - N/A   Overcast
9:14 PM 28.4 °F 22.2 °F 24.8 °F 86% 29.97 in 10.0 mi South 5.8 mph - N/A   Mostly Cloudy
9:34 PM 28.4 °F 22.2 °F 24.8 °F 86% 29.96 in 10.0 mi South 5.8 mph - N/A   Mostly Cloudy
9:54 PM 28.4 °F 21.2 °F 26.6 °F 93% 29.95 in 10.0 mi South 6.9 mph - N/A   Mostly Cloudy
10:15 PM 28.4 °F 19.7 °F 26.6 °F 93% 29.93 in 7.0 mi South 9.2 mph - N/A   Overcast
10:34 PM 28.4 °F 20.4 °F 26.6 °F 93% 29.92 in 7.0 mi South 8.1 mph - N/A   Overcast
10:54 PM 30.2 °F 22.6 °F 26.6 °F 86% 29.90 in 7.0 mi South 8.1 mph - N/A   Overcast
11:14 PM 30.2 °F 23.4 °F 26.6 °F 86% 29.91 in 7.0 mi South 6.9 mph - N/A   Overcast
11:34 PM 30.2 °F 21.9 °F 28.4 °F 93% 29.88 in 7.0 mi South 9.2 mph - N/A   Overcast
11:54 PM 30.2 °F 23.4 °F 28.4 °F 93% 29.88 in 7.0 mi South 6.9 mph - N/A   Overcast